Location: Haigaa
(61.5000°N, 23.1000°E)
Time: 07:18:44
(UTC+00:00)

Daily predictions for brighter satellites

Satellite Brightness Start Highest point End
(mag) Time Altitude Azimuth Time Altitude Azimuth Time Altitude Azimuth
Cosmos 1934 Rocket 4.1 19:37:01 10° S 19:43:22 72° E 19:49:44 10° NNE
USA 267 3.8 19:37:45 10° E 19:43:41 35° SE 19:49:36 10° SSW
Cosmos 614 Rocket 4.0 19:41:17 10° SSW 19:46:26 70° ESE 19:51:40 10° NE
GP-B 3.2 19:42:01 10° N 19:46:30 88° W 19:50:58 10° S
IGS 5A 4.4 19:43:31 10° S 19:47:30 45° W 19:51:32 10° NNW
Cosmos 1470 Rocket 3.9 19:44:15 10° S 19:48:30 48° E 19:52:44 10° NNE
Cosmos 1900 4.4 19:44:50 10° SW 19:49:45 62° SE 19:54:47 10° ENE
CZ-2C R/B 4.5 19:47:19 10° NNE 19:51:58 60° WNW 19:56:29 10° SW
Cosmos 921 Rocket 3.5 19:48:57 10° NW 19:53:08 56° WSW 19:57:16 10° S
Cosmos 1862 Rocket 4.3 19:50:30 10° NNW 19:54:55 55° W 19:59:16 10° S
Cosmos 841 Rocket 3.7 19:51:10 10° NNW 19:56:24 73° NE 20:01:38 10° SE
SL-16 R/B 2.3 19:50:44 10° NW 19:56:28 81° SW 20:02:09 10° SE
Cosmos 1821 Rocket 4.3 19:50:31 10° SSW 19:56:40 73° WNW 20:02:59 10° NNE
Cosmos 540 Rocket 3.6 19:52:55 10° NNW 19:58:07 72° NE 20:03:18 10° SE
Cosmos 2322 4.4 19:53:13 10° NW 19:58:49 53° NNE 20:04:22 10° ESE
COSMOS 2406 3.2 19:53:14 10° SSW 19:58:59 76° SE 20:04:44 10° NE
Cosmos 468 Rocket 4.3 19:54:37 10° NW 19:59:57 70° WSW 20:05:14 10° SSE
Lacrosse 5 2.7 19:56:59 10° W 20:01:35 35° SSW 20:06:10 10° SE
ERS-1 Rocket 3.4 19:57:29 10° S 20:02:28 63° WSW 20:07:29 10° NNW
SAR-Lupe-2 4.0 19:59:48 10° NNE 20:03:18 45° ESE 20:06:45 10° S
Cosmos 1570 Rocket 4.1 20:02:00 10° NW 20:07:20 83° NE 20:12:42 10° SE
Cosmos 2219 Rocket 3.0 20:02:12 10° NW 20:07:44 49° NNE 20:13:15 10° ESE
Sich 1 3.9 20:04:21 10° SSW 20:08:43 56° WNW 20:13:08 10° N
Cosmos 2208 Rocket 4.1 20:04:00 10° NW 20:09:22 77° NE 20:14:37 10° SE
Cosmos 1814 Rocket 4.1 20:04:50 10° NNW 20:10:02 75° NE 20:15:17 10° SE
Cosmos 2237 4.3 20:06:57 10° NW 20:12:44 82° NE 20:18:27 10° SE
Cosmos 2082 Rocket 2.4 20:08:35 10° SSW 20:14:07 53° ESE 20:19:37 10° NE
Cosmos 1954 Rocket 4.2 20:10:39 10° S 20:15:48 53° ESE 20:20:59 10° NE
Cosmos 2322 Rocket 2.3 20:13:10 10° NW 20:18:51 73° SW 20:24:25 11° SSE
CZ-2C R/B 4.4 20:14:40 10° N 20:19:21 35° NW 20:24:01 10° WSW
GENESIS II 4.4 20:15:53 10° WNW 20:19:57 78° NNE 20:23:58 10° ESE
SL-16 R/B 4.0 20:17:31 10° WNW 20:22:39 33° N 20:27:47 10° ENE
Cosmos 1184 Rocket 2.9 20:22:45 10° SSW 20:26:03 80° WNW 20:29:23 10° NNE
Terra 2.3 20:21:43 10° S 20:26:25 59° WSW 20:31:10 10° NNW
Cosmos 1190 Rocket 4.0 20:21:30 10° SSW 20:26:49 83° ESE 20:32:11 10° NE
Okean 1 4.0 20:23:00 10° NNW 20:26:56 51° W 20:30:52 10° S
Cosmos 2100 Rocket 4.4 20:21:08 10° SSE 20:26:59 48° E 20:32:52 10° NNE
Cosmos 1933 Rocket 3.6 20:25:18 10° S 20:29:42 75° E 20:34:10 10° NNE
Cosmos 407 Rocket 3.6 20:24:26 10° SW 20:29:47 85° NW 20:35:06 10° NE
Cosmos 1605 Rocket 4.0 20:23:52 10° SSW 20:30:00 90° WNW 20:36:09 10° NNE
Cosmos 1666 Rocket 4.4 20:26:06 10° SW 20:30:19 51° WNW 20:34:36 10° N
Cosmos 1437 Rocket 3.2 20:27:50 10° NNW 20:31:38 55° W 20:35:21 10° S
Cosmos 1238 Rocket 2.1 20:28:48 10° SSW 20:31:48 84° WNW 20:34:47 10° NNE
Meteor 1-20 Rocket 4.3 20:26:01 10° SSW 20:31:51 85° ESE 20:37:46 10° NNE
Cosmos 2360 Rocket 2.3 20:27:26 10° NW 20:33:10 88° SW 20:38:35 11° SE
COSMOS 2428 3.3 20:28:15 10° NW 20:33:55 57° NE 20:39:35 10° ESE
Cosmos 1242 Rocket 3.5 20:31:36 10° N 20:35:00 38° ENE 20:38:07 12° SE
Cosmos 1602 3.7 20:32:17 10° S 20:36:13 79° ESE 20:40:11 10° NNE
ATLAS 3B R/B 4.2 20:34:00 11° SE 20:37:19 15° ESE 20:40:51 10° ENE
Cosmos 1869 Rocket 4.0 20:35:53 11° SSE 20:39:53 47° E 20:44:12 10° NNE
ERBS 2.8 20:37:38 10° WSW 20:40:44 37° S 20:43:49 10° ESE
Cosmos 1980 Rocket 4.0 20:36:32 10° NW 20:40:55 23° WSW 20:45:16 10° SSW
SPOT 5 3.9 20:36:59 10° SSW 20:40:57 35° W 20:45:02 10° NNW
Cosmos 1703 Rocket 4.2 20:38:20 10° NNW 20:42:35 50° W 20:46:47 10° S
Cosmos 2173 Rocket 4.2 20:36:37 10° S 20:42:37 56° E 20:48:34 10° NNE
USA 238 DEB 4.1 20:36:50 10° SSW 20:43:01 41° SE 20:49:28 10° ENE
USA 238 4.1 20:36:58 10° SSW 20:43:07 41° SE 20:49:34 10° ENE
MTI 4.3 20:40:38 10° NNE 20:43:35 39° E 20:45:54 15° SSE
Geosat 4.4 20:40:38 12° SSE 20:45:12 55° WSW 20:50:11 10° NW
Iridium 4 Rocket 3.2 20:41:58 12° SSE 20:45:55 60° E 20:50:02 10° N
Cosmos 1763 Rocket 4.4 20:41:08 10° NW 20:46:08 42° WSW 20:51:08 10° S
MOS 1-B Rocket 4.3 20:45:43 10° NNE 20:51:22 45° E 20:56:13 13° SSE
SL-4 R/B 3.4 20:49:36 10° SSW 20:51:35 15° SSE 20:51:35 15° SSE
BREEZE-M DEB (TANK) 4.4 20:48:44 10° SW 20:52:19 27° SSE 21:01:26 10° ESE
Cosmos 1674 Rocket 4.1 20:48:16 10° N 20:52:30 50° ENE 20:56:08 14° SE
Cosmos 1500 3.4 20:50:18 13° S 20:53:26 53° E 20:57:07 10° NNE
Cosmos 2333 Rocket 2.5 20:47:37 10° NW 20:53:26 73° NE 20:59:14 10° SE
Meteor 1-14 Rocket 4.4 20:47:44 10° S 20:53:36 78° ESE 20:59:36 10° NNE
Cosmos 405 Rocket 2.7 20:50:10 10° SSW 20:53:52 78° WNW 20:57:39 10° NNE
ALOS 2 3.1 20:50:20 13° SE 20:54:10 53° ENE 20:58:28 10° NNW
NOSS 0 Rocket 4.5 20:49:14 10° NW 20:55:25 60° NNE 21:01:37 10° ESE
Cosmos 1140 Rocket 3.8 20:50:13 10° SW 20:55:29 74° NW 21:00:47 10° NNE
Meteor 1-13 Rocket 4.2 20:50:25 10° NNW 20:56:01 84° WSW 21:00:56 13° SSE
Cosmos 2237 Rocket 3.2 20:52:17 10° NW 20:57:46 46° NNE 21:03:13 10° ESE
Cosmos 2016 Rocket 4.3 20:55:14 12° SSE 21:00:52 54° E 21:07:04 10° NNE
Cosmos 1536 3.8 20:58:57 15° SSE 21:01:41 31° E 21:05:15 10° NNE
Cosmos 2061 Rocket 4.3 20:56:26 13° SSE 21:01:54 54° E 21:07:55 10° NNE
Cosmos 1271 Rocket 3.6 20:58:59 10° N 21:02:34 40° ENE 21:05:39 13° SE
Okean 1-7 4.2 21:00:08 10° NNW 21:04:11 37° W 21:08:10 10° SSW
Cosmos 1459 Rocket 4.1 20:58:06 10° S 21:04:19 72° E 21:10:42 10° NNE
Cosmos 2344 4.1 20:56:35 10° WNW 21:04:47 87° NNE 21:15:49 10° ESE
Cosmos 1833 Rocket 3.0 20:59:14 10° SW 21:04:51 71° NW 21:10:32 10° NE
Cosmos 1666 3.5 21:02:40 16° SSE 21:05:14 36° E 21:08:43 10° NNE
Cosmos 2221 Rocket 3.7 21:00:48 10° NNW 21:05:17 80° WSW 21:09:01 15° S
Cosmos 1066 Rocket 4.3 21:01:10 10° NNW 21:07:01 80° ENE 21:11:52 15° SSE
Meteor 1-23 Rocket 4.4 21:02:35 10° NNW 21:08:27 79° ENE 21:13:27 15° SSE
Cosmos 1356 4.4 21:07:57 17° SSE 21:10:01 31° E 21:13:07 10° NNE
Okean 3 3.8 21:06:08 10° NNW 21:10:23 62° W 21:13:59 14° S
Cosmos 1867 3.6 21:05:48 10° SW 21:11:09 59° SE 21:16:32 10° ENE
CENTAUR R/B 3.2 21:05:44 10° SSW 21:11:32 39° SE 21:18:19 10° ENE
Thor Agena Rocket 4.0 21:07:37 10° NNE 21:12:29 44° E 21:16:24 15° SSE
Cosmos 44 Rocket 3.3 21:08:34 10° WNW 21:13:30 86° SW 21:18:33 10° ESE
Meteor 2-4 Rocket 4.4 21:08:06 10° NNW 21:13:38 49° W 21:18:53 10° SSW
Cosmos 1733 Rocket 3.8 21:13:55 16° SSE 21:17:02 40° E 21:21:11 10° NNE
Cosmos 44 4.4 21:15:31 10° WNW 21:19:44 31° SW 21:23:09 15° S
Cosmos 1802 Rocket 4.1 21:13:52 12° S 21:19:55 75° E 21:26:16 10° NNE
Cosmos 1850 Rocket 4.1 21:14:49 10° SSW 21:20:04 66° ESE 21:25:19 10° NE
ATLAS 5 CENTAUR R/B 3.3 21:19:06 10° W 21:21:18 20° SSW 21:23:25 15° S
SL-27 R/B 2.7 21:19:37 17° S 21:21:54 46° ESE 21:25:07 10° NE
Cosmos 676 Rocket 4.4 21:19:05 10° SW 21:24:26 70° NW 21:29:48 10° NNE
USA 267 3.3 21:21:10 10° E 21:27:36 57° SSE 21:34:03 10° WSW
Spot 4 4.3 21:27:26 15° S 21:31:20 56° WSW 21:36:08 10° NNW
Cosmos 2233 Rocket 4.4 21:29:56 15° SSE 21:34:58 53° E 21:41:07 10° NNE
Cosmos 1378 3.1 21:31:30 10° NNW 21:35:17 82° ENE 21:37:53 19° SSE
NOSS 3-2 (A) 3.6 21:31:20 10° SW 21:37:17 62° SE 21:44:14 10° ENE
Cosmos 1607 4.3 21:32:26 10° WNW 21:38:51 74° NNE 21:45:21 10° ESE
Cosmos 1842 4.0 21:35:33 10° N 21:39:23 45° ENE 21:42:24 15° SE
SL-16 R/B 3.7 21:35:21 10° NW 21:39:55 25° WSW 21:44:17 11° SSW
Cosmos 2322 3.9 21:37:36 10° NW 21:43:12 61° WSW 21:47:37 17° SSE
NOSS 3-2 (C) 3.7 21:37:27 10° SSW 21:43:16 51° SE 21:49:59 10° ENE
Lacrosse 5 3.7 21:40:38 10° W 21:43:26 15° SW 21:45:31 12° SSW
COSMOS 2406 4.4 21:38:11 10° WSW 21:43:43 46° NNW 21:49:15 10° NE
OPS 6432 4.0 21:41:10 10° SW 21:44:29 66° SSE 21:47:24 10° ENE
Cosmos 1378 Rocket 3.6 21:44:02 10° NNW 21:48:32 78° WSW 21:51:46 18° S
Tsikada Rocket 4.3 21:43:20 10° NNW 21:49:40 64° W 21:54:55 15° S
Cosmos 2219 Rocket 2.3 21:46:21 10° NW 21:52:01 69° SW 21:56:38 16° SSE
Cosmos 1741 Rocket 4.1 21:49:15 10° SW 21:54:31 85° NW 21:59:53 10° NE
Cosmos 2082 Rocket 2.9 21:52:39 10° WSW 21:58:16 58° NW 22:03:53 10° NE
COSMOS 2487 3.4 21:58:46 21° SSE 22:00:21 31° ESE 22:03:26 10° NE
Cosmos 2084 Rocket 4.2 21:59:01 18° SSW 22:01:38 34° SE 22:05:34 10° ENE
Cosmos 1975 Rocket 3.4 21:57:20 10° NNW 22:01:50 64° ENE 22:05:17 17° SSE
Cosmos 2322 Rocket 3.8 21:57:51 10° NW 22:02:07 22° WSW 22:06:13 11° SSW
EO 1 Del DPAF 3.1 21:58:27 10° NNE 22:02:14 84° ESE 22:04:57 18° SSW
Terra 4.2 22:02:42 10° WSW 22:05:13 14° W 22:07:43 10° NW
SL-16 R/B 3.1 22:02:20 10° NW 22:07:55 52° NNE 22:13:29 10° ESE
SL-16 R/B 3.8 22:03:46 10° ESE 22:09:30 39° NE 22:15:14 10° NNW
Cosmos 1242 Rocket 3.7 22:06:36 10° NNW 22:09:51 32° W 22:12:07 17° SSW
Cosmos 1437 4.3 22:07:24 10° N 22:10:03 27° ENE 22:12:29 11° ESE
YAOGAN 11 4.2 22:10:49 18° SSE 22:14:15 88° WSW 22:18:53 10° NNW
Meteor 1-11 Rocket 3.9 22:09:09 13° SSW 22:14:17 77° WNW 22:20:08 10° NNE
Helios 1A 3.0 22:13:11 20° S 22:16:07 75° WSW 22:20:22 10° NNW
ERBS 3.0 22:13:35 10° W 22:16:35 31° SSW 22:18:11 20° SSE
Cosmos 2360 Rocket 3.5 22:11:52 10° NW 22:16:36 28° WSW 22:20:19 14° SSW
COSMOS 2428 3.0 22:12:42 10° NW 22:18:18 55° WSW 22:22:37 17° SSE
Okean 2 3.4 22:18:10 10° NNW 22:22:17 76° W 22:25:03 20° S
Cosmos 1544 3.7 22:20:20 21° SSE 22:22:30 46° E 22:26:02 10° NNE
ATLAS 3B R/B 3.0 22:21:13 15° SSW 22:26:26 45° SE 22:32:44 10° ENE
Nimbus 7 Rocket 4.4 22:21:24 10° NNE 22:27:20 85° ESE 22:32:15 15° SSW
ALOS 2 3.7 22:27:44 16° SSW 22:30:44 33° W 22:34:45 10° NNW
Cosmos 1980 3.7 22:26:58 10° NW 22:32:41 79° SW 22:38:05 12° SSE
Cosmos 1725 Rocket 4.4 22:27:19 11° SSW 22:33:16 62° WNW 22:39:36 10° NNE
USA 238 DEB 3.7 22:26:39 10° WSW 22:33:27 84° SSE 22:40:37 10° ENE
USA 238 3.7 22:26:46 10° WSW 22:33:34 84° SSE 22:40:43 10° ENE
DNEPR-1 R/B 4.3 22:27:09 10° WNW 22:33:48 75° SW 22:39:08 10° SE
Cosmos 2333 Rocket 2.9 22:32:09 10° NW 22:37:29 39° WSW 22:41:19 18° S
Cosmos 1536 3.6 22:34:39 13° SW 22:38:01 45° WNW 22:41:53 10° N
Cosmos 2297 Rocket 4.2 22:35:06 10° SE 22:38:14 15° E 22:41:22 10° ENE
Cosmos 1271 Rocket 3.8 22:35:07 10° NNW 22:38:32 33° W 22:40:47 18° SSW
Cosmos 1538 Rocket 4.0 22:33:30 10° NW 22:38:44 82° NE 22:43:52 10° SE
Cosmos 1666 3.9 22:37:32 11° SW 22:40:51 36° WNW 22:44:22 10° N
Cosmos 1743 2.7 22:38:17 20° SSW 22:40:56 82° WNW 22:44:52 10° NNE
NOSS 0 Rocket 4.1 22:35:54 10° NW 22:42:02 59° WSW 22:47:14 15° SSE
Cosmos 2237 Rocket 2.2 22:36:34 10° NW 22:42:15 75° SW 22:47:32 12° SSE
Cosmos 773 Rocket 4.0 22:39:02 10° NW 22:44:12 72° WSW 22:48:25 15° SSE
Cosmos 1025 Rocket 3.3 22:40:34 10° NNW 22:44:51 65° ENE 22:48:18 15° SSE
Lacrosse 4 Rocket 2.0 22:45:23 20° S 22:47:51 40° SE 22:51:47 10° ENE
Cosmos 1833 Rocket 4.4 22:44:26 10° W 22:49:39 36° NNW 22:54:52 10° NE
Thor Agena Rocket 4.2 22:47:02 10° NNE 22:51:56 50° WNW 22:56:50 10° SW
Cosmos 44 Rocket 4.2 22:50:18 10° WNW 22:54:40 32° SW 22:57:30 18° S
Cosmos 1867 3.9 22:49:20 10° WSW 22:54:48 71° NNW 23:00:18 10° ENE
Cosmos 1733 Rocket 4.0 22:50:59 12° SW 22:54:53 42° WNW 22:59:07 10° N
In-Cosmos 22 4.3 22:50:45 10° NNW 22:56:28 79° ENE 23:01:28 13° SSE
SL-27 R/B 4.1 22:54:08 10° WSW 22:57:08 30° NW 23:00:09 10° NNE
CENTAUR R/B 2.8 22:55:01 10° WSW 23:01:36 83° SSE 23:09:28 10° ENE
Cosmos 2026 Rocket 4.3 22:56:30 10° NNW 23:02:34 66° ENE 23:08:39 10° SSE
Cosmos 968 Rocket 3.5 22:59:01 17° SSW 23:02:53 69° ESE 23:08:01 10° NE
Resurs 1-4 Rocket 3.9 22:59:12 10° NE 23:03:22 23° E 23:07:30 10° SE
Spot 1 4.3 23:00:24 12° SE 23:04:15 64° ENE 23:08:18 10° NNW
Cosmos 1536 Rocket 3.6 23:00:03 10° NNW 23:04:26 77° ENE 23:07:59 15° SSE
Cosmos 1975 2.8 23:02:22 20° SSW 23:05:07 90° WNW 23:09:12 10° NNE
Cosmos 1354 Rocket 4.4 23:07:09 18° S 23:11:04 55° ESE 23:16:17 10° NE
USA 267 3.3 23:04:46 10° ESE 23:11:15 61° S 23:17:45 10° W
Cosmos 1943 4.3 23:07:25 10° NW 23:12:52 46° NNE 23:18:17 10° ESE
Cosmos 1707 2.8 23:09:39 10° NNW 23:13:34 65° W 23:16:14 19° S
Cosmos 1782 Rocket 3.5 23:10:37 19° SSW 23:13:45 85° WNW 23:18:09 10° NNE
Cosmos 1842 4.4 23:11:46 10° NNW 23:15:17 31° W 23:17:41 17° SW
Helios 1B rocket 2.7 23:14:49 10° NNE 23:18:53 57° ESE 23:21:48 18° S
CZ-4 R/B 4.0 23:14:08 10° NNE 23:19:07 72° ESE 23:23:00 17° S
Cosmos 2344 4.3 23:10:43 10° WNW 23:19:14 57° SW 23:30:50 10° SSE
Cosmos 1464 Rocket 4.0 23:15:36 16° SSW 23:20:42 86° WNW 23:26:57 10° NNE
Cosmos 1680 Rocket 3.8 23:15:53 10° NNW 23:21:11 73° NE 23:26:24 10° SE
Cosmos 1908 Rocket 4.1 23:18:33 15° SW 23:22:02 50° WNW 23:26:19 10° N
CZ-4C R/B 3.7 23:20:02 10° SE 23:23:28 54° ENE 23:27:02 10° NNW
Cosmos 1674 2.9 23:21:42 10° NNW 23:25:26 68° ENE 23:28:43 13° SSE
USA 102 3.9 23:23:49 27° S 23:25:35 61° WSW 23:31:53 10° NW
Cosmos 1607 4.1 23:19:51 10° WNW 23:26:11 62° SW 23:32:33 10° SE
Cosmos 2227 Rocket 3.7 23:22:42 11° SSE 23:27:04 26° ESE 23:31:39 10° NE
NOSS 3-2 (A) 3.8 23:21:47 10° W 23:28:08 81° NNW 23:35:37 10° ENE
Nadezhda 4 Rocket 4.3 23:26:52 10° NNW 23:33:01 55° W 23:38:04 15° SSW
NOSS 3-2 (C) 3.7 23:27:38 10° WSW 23:33:57 86° NNW 23:41:22 10° ENE
Cosmos 1833 4.3 23:28:47 10° SW 23:34:27 77° NW 23:40:11 10° NE
Cosmos 2219 Rocket 3.7 23:31:01 10° NW 23:35:08 21° WSW 23:38:19 13° SW
COSMOS 2487 3.3 23:32:14 12° WSW 23:35:18 44° NW 23:38:39 10° NNE
Meteor 1-29 3.3 23:35:19 10° NNE 23:38:45 57° ESE 23:41:13 17° S
Cosmos 1975 Rocket 4.4 23:35:37 10° NNW 23:39:25 27° W 23:42:25 14° SW
Cosmos 2084 Rocket 3.4 23:36:31 10° WSW 23:40:49 84° SSE 23:45:14 10° ENE
Cosmos 1437 3.5 23:40:15 10° NNW 23:43:00 33° W 23:44:31 20° SSW
Cosmos 2082 Rocket 4.0 23:38:15 10° WNW 23:43:24 34° N 23:48:32 10° NE
MOZ.5/SAFIR/RUBIN 5/SL-8 3.8 23:39:37 13° S 23:43:50 72° WSW 23:48:36 10° NNW
Cosmos 158 Rocket 4.1 23:39:30 10° NW 23:44:52 86° SW 23:50:17 10° SSE
Landsat 4 4.0 23:42:29 10° NNE 23:46:17 60° WNW 23:49:12 16° SW
ADEOS II 4.0 23:43:00 10° NE 23:47:07 22° E 23:51:12 10° SE
Cosmos 1092 Rocket 4.1 23:41:08 10° NNW 23:47:20 63° W 23:52:45 14° S
Okean 2 Rocket 3.1 23:45:22 16° SSW 23:48:53 89° W 23:53:27 10° NNE
Cosmos 2034 Rocket 4.1 23:43:53 15° SSW 23:49:14 79° WNW 23:55:37 10° NNE
CZ-2D R/B 3.1 23:44:23 10° NNE 23:49:36 42° E 23:54:48 10° SSE
Cosmos 1503 Rocket 4.1 23:45:55 14° SW 23:50:36 86° NW 23:56:01 10° NE
Cosmos 923 Rocket 4.1 23:46:39 10° NW 23:51:59 69° WSW 23:57:16 10° SSE
ERBS 4.3 23:50:16 10° WSW 23:51:02 13° WSW 23:51:02 13° WSW
SL-16 R/B 2.3 23:46:39 10° NW 23:52:18 63° WSW 23:57:54 10° SSE
SL-16 R/B 2.6 23:46:32 10° SSE 23:52:50 76° WSW 23:59:07 10° NNW
